P/L 153 DEB

Satellite information

Favourite Embed

Satellite Type and Status

DEBRISIN ORBIT

Key statistics

Satellite P/L 153 DEB at a glance.

Uptime

21221

Days in orbit

Revolutions

≈ 14.2

Per day

Orbit

LEO

Low Earth Orbit

Inclination

70.0

Latest

Satellite identification and parameters

Extended collection of information and parameters for P/L 153 DEB.

Object identification

Identified? True

Debris? True

Object name: P/L 153 DEB

International designator: 1967-053K

Object number (NORAD): 19245

Object ID (CCSDS): 19245

Country: UNITED STATES OF AMERICA (US)

Current information (Y/N): Y

RCS size: SMALL

Orbital parameters

Period: 101.24 minutes

Inclination: 69.9576 deg

SMA: 7195.528 km

Apoapsis: 821.461 km

Periapsis: 813.326 km

RAAN: 35.2009 deg

Eccentricy: 0.0005653

Argument of periapsis: 248.6852 deg

Mean anomaly: 260.9754 deg

Mean motion: 14.22357357 rev/day

Mean motion (dot): 0.00000515 rev/day2

B* drag term: 0.00025715 1/REarth

Two-line elements (TLE)

Creation date: July 5, 2025, 5:45 p.m.

Reference frame: TEME

Reference center: EARTH

Epoch: July 5, 2025, 12:16 a.m. UTC

TLE line 0: 0 P/L 153 DEB

TLE line 1: 1 19245U 67053K 25186.01139716 .00000515 00000-0 25715-3 0 9996

TLE line 2: 2 19245 69.9576 35.2009 0005653 248.6852 260.9754 14.22357357980928

Live tracking on map

Real-time ground track for satellite P/L 153 DEB.

In-orbit conjunctions

A list of the most updated potential collisions computed for object P/L 153 DEB.

Target Orbit TCA Probability of collision Miss distance Type
CZ-6A DEB SSO 2025-04-20 11:16:49 0.0002864102 82.0 (m) DEBRIS
CZ-6A DEB LEO 2025-03-01 20:54:05 0.0003336389 433.0 (m) DEBRIS

Associated space launch

Poppy was the follow-on ELINT system, which succeeded the Grab ELINT satellite system.

P/L 153 DEB was lifted into orbit during the mission ‘Thor SLV-2 Agena D | Poppy 7A,B,C,D’, on board a Thor SLV-2 Agena D space rocket.

The launch took place on May 31, 1967, 9:30 a.m. from Space Launch Complex 2W.

For more information about the launch, click the button.

Launch to space Thor SLV-2 Agena D | Poppy 7A,B,C,D
Thor SLV-2 Agena D | Poppy 7A,B,C,D

Agency: N/A

Status: Launch Successful

Launch date: May 31, 1967, 9:30 a.m. UTC

Rocket: Thor SLV-2 Agena D

Launch pad: Space Launch Complex 2W

Location: Vandenberg SFB, CA, USA

...

Latest news about this satellite

There are no fresh news available about this satellite. Check back as we update our databases every day.


Newsletter sign-up

Weekly statistics, charts and insights to help you stay on top of the space industry.